Flag for Canada Weather past 2 weeks in Gatineau, Quebec, Canada

37 °F

Light rain. Mostly cloudy.

Feels Like: 28 °F
Forecast: N/A
Wind: 16 mph from Northwest

Location: Ottawa Int'L. Ont.

Current Time: Nov 27, 2015 at 6:02:45 PM

Latest Report: Nov 27, 2015 at 5:00 PM

Visibility: 10 mi

Pressure: 30.17 "Hg

Humidity: 100%

Dew point: 37 °F

Location of GatineauLocation

Historic Weather in Gatineau — Graph


Gatineau temperature yesterday

Maximum temperature yesterday: 54 °F (at 7:00 PM)
Minimum temperature yesterday: 30 °F (at 12:00 AM)
Average temperature yesterday: 45 °F

Past Weeks' High & Low Weather Summary

High61 °F (Nov 19, 10:00 AM)100% (Nov 12, 4:00 PM)30.72 "Hg (Nov 12, 4:00 PM)
Low18 °F (Nov 23, 7:00 AM)39% (Nov 20, 4:00 PM)29.24 "Hg (Nov 13, 12:48 AM)
Average37 °F75%30.13 "Hg
* Reported Nov 12 4:00 PM — Nov 27 4:00 PM, Gatineau, Weather by CustomWeather, © 2015

Note: Actual official high and low records may vary slightly from our data, if they occured in-between our weather recording intervals... More about our weather records


Gatineau weather history for previous 24 hours

Time TempWeatherWind HumidityBarometerVisibility
4:00 PM
Fri, Nov 27
41 °FLight rain. Mostly cloudy.18 mph87%30.12 "Hg10 mi
3:00 PM50 °FLight rain. More clouds than sun.18 mph88%30.09 "Hg10 mi
2:00 PM50 °FLight rain. Overcast.14 mph94%30.08 "Hg10 mi
1:00 PM52 °FLight rain. Overcast.16 mph82%30.10 "Hg10 mi
12:00 PM54 °FLight rain. Overcast.18 mph72%30.10 "Hg10 mi
11:00 AM55 °FLight rain. Overcast.20 mph67%30.13 "Hg10 mi
10:00 AM55 °FMostly cloudy.22 mph63%30.14 "Hg15 mi
9:02 AM55 °FLight rain. Overcast.23 mph67%30.15 "Hg15 mi
8:00 AM54 °FMostly cloudy.20 mph67%30.17 "Hg15 mi
7:00 AM55 °FOvercast.18 mph63%30.17 "Hg15 mi
6:00 AM55 °FOvercast.20 mph63%30.18 "Hg15 mi
5:00 AM55 °FOvercast.24 mph59%30.20 "Hg15 mi
4:00 AM55 °FOvercast.23 mph59%30.20 "Hg15 mi
3:00 AM55 °FMostly cloudy.20 mph59%30.23 "Hg15 mi
2:00 AM55 °FOvercast.20 mph59%30.25 "Hg15 mi
1:00 AM54 °FMostly cloudy.18 mph63%30.25 "Hg15 mi
12:00 AM54 °FMostly cloudy.21 mph63%30.29 "Hg15 mi
11:00 PM
Thu, Nov 26
54 °FOvercast.16 mph58%30.31 "Hg15 mi
10:00 PM54 °FPassing clouds.18 mph63%30.32 "Hg15 mi
9:00 PM54 °FPartly cloudy.15 mph63%30.34 "Hg15 mi
8:00 PM54 °FOvercast.12 mph63%30.37 "Hg15 mi
7:00 PM54 °FOvercast.14 mph58%30.37 "Hg15 mi
6:00 PM52 °FMostly cloudy.10 mph62%30.40 "Hg15 mi
Weather by CustomWeather, © 2015

See weather overviewHow to use our weather pages